Temperature
5 5 5 5 5 5 6 6 6 6 7 7 7 7 7 7 8 8 8 8 8 9 9 9 9 9 9 9 9 9 9 9 9 9 9 9 9 8 8 8 7 7 7
5 5 5 5 5 5 5 6 6 6 7 7 7 7 7 7 7 8 7 8 8 8 9 9 9 9 9 9 9 9 9 9 9 9 9 8 8 8 8 7 7 7 6
5 4 4 5 5 5 5 6 6 6 6 7 7 7 7 7 7 7 7 8 8 8 8 8 8 8 8 8 9 9 9 9 9 9 8 8 8 8 7 7 7 6 6
4 4 4 4 4 4 5 5 6 6 6 6 7 7 7 7 7 7 7 8 8 8 8 8 8 8 9 8 8 8 8 8 8 8 8 8 8 8 7 7 6 6 5
4 4 4 4 4 4 5 5 5 6 6 6 6 6 7 7 7 7 7 7 8 8 8 8 8 8 9 8 8 8 8 8 8 8 8 8 7 7 7 7 6 6 5
4 4 3 4 4 4 4 5 5 5 6 6 6 6 6 7 7 7 7 7 7 8 8 8 8 8 8 8 8 8 8 8 8 8 8 7 7 7 7 6 6 5 5
3 3 3 3 3 4 4 4 5 5 5 6 6 6 7 7 7 7 7 7 7 7 8 8 8 8 8 8 8 8 8 8 8 8 8 7 7 7 7 6 6 5 5
3 3 3 3 3 4 4 4 4 5 5 6 6 6 6 7 7 7 7 7 7 7 8 8 8 8 8 8 8 8 8 7 7 7 7 7 7 7 6 6 6 5 4
2 3 3 3 3 3 3 4 4 4 5 5 6 6 6 7 7 7 7 7 7 7 7 8 8 8 8 8 7 7 7 7 7 7 7 7 6 6 6 6 5 4 4
2 2 2 2 2 3 3 3 4 4 5 5 6 6 6 6 7 7 7 7 7 7 7 7 8 8 8 7 7 7 7 7 7 7 6 6 6 6 5 5 5 4 4
1 2 2 2 2 2 3 3 4 4 4 5 5 5 6 6 6 6 6 6 6 6 6 7 7 7 7 7 7 7 7 7 7 6 6 6 5 5 5 4 4 4 3
1 1 2 2 2 2 2 3 3 4 4 4 5 5 5 6 6 6 6 6 6 6 6 7 7 7 7 7 7 7 7 6 6 6 6 5 5 5 4 4 3 3 3
0 1 1 1 1 1 2 2 3 3 3 4 4 4 5 5 6 6 6 6 6 6 6 7 7 7 7 6 6 6 6 6 6 6 5 5 5 4 4 3 3 3 2
-0 0 0 1 1 1 1 2 2 3 3 3 4 4 4 5 5 5 6 6 6 6 6 6 6 6 6 6 6 6 6 6 5 5 5 5 4 4 3 3 3 2 2
-1 -0 0 0 0 1 1 1 2 2 2 3 3 4 4 4 5 5 5 5 5 6 5 5 5 5 5 5 5 5 5 5 5 5 5 4 4 3 3 3 2 2 1
-1 -1 -1 -0 -0 0 1 1 1 2 2 3 3 3 3 4 4 5 5 5 5 6 5 5 5 5 5 5 5 5 5 5 5 5 4 4 3 3 3 2 2 1 1
-2 -2 -1 -1 -1 -0 -0 0 1 2 2 2 3 3 3 4 4 4 5 5 5 5 5 5 5 5 5 5 5 5 5 5 5 4 4 4 3 3 2 2 1 1 1
-2 -2 -2 -1 -1 -1 -1 -0 0 1 1 2 3 3 3 3 4 4 4 4 4 5 5 5 5 5 5 5 5 5 5 4 4 4 4 3 3 2 2 1 1 1 0
-3 -3 -2 -2 -2 -2 -1 -1 -0 0 1 1 2 2 3 3 3 4 4 4 4 4 5 5 5 5 5 5 4 4 4 4 4 4 3 3 3 2 2 1 1 0 -0
-3 -3 -3 -2 -2 -2 -2 -1 -1 -0 0 1 1 2 2 2 3 3 3 4 4 4 4 5 5 5 5 4 4 4 4 4 4 3 3 2 2 2 1 1 0 0 -0
-4 -3 -3 -3 -2 -2 -2 -1 -1 -0 -0 0 1 1 2 2 2 3 3 3 4 4 4 4 4 4 4 4 4 4 4 4 3 3 3 2 2 2 1 1 0 -0 -1
-4 -4 -4 -3 -3 -2 -2 -2 -1 -1 -0 0 1 1 1 2 2 3 3 3 3 4 4 4 4 4 4 4 4 4 4 3 3 3 3 2 2 1 1 0 0 -0 -1
-5 -5 -4 -4 -3 -3 -3 -2 -2 -1 -1 -0 0 1 1 1 2 2 3 3 3 3 3 4 4 4 4 4 4 4 4 4 3 3 3 2 2 1 1 0 -0 -0 -1
-5 -5 -5 -4 -4 -3 -3 -2 -2 -2 -1 -0 0 1 1 1 2 2 2 3 3 3 3 3 4 4 4 3 3 3 3 3 3 3 2 2 2 1 1 0 -0 -1 -1
-5 -5 -5 -5 -4 -4 -3 -3 -3 -2 -1 -1 -0 0 1 1 1 2 2 2 3 3 3 3 3 3 3 3 3 3 3 3 3 2 2 2 1 1 1 0 -0 -1 -1
-6 -5 -5 -5 -5 -4 -4 -3 -3 -2 -2 -1 -0 0 0 1 1 1 2 2 2 3 3 3 3 3 3 3 3 3 3 2 2 2 2 1 1 1 0 0 -0 -1 -1
Wind_Speed
8 8 9 9 9 9 9 9 8 8 9 10 10 10 11 11 12 12 11 12 14 12 11 13 12 10 9 7 6 6 5 5 5 2 2 2 4 5 4 5 6 5 4
7 8 8 8 8 8 9 8 7 8 9 10 10 10 10 11 11 12 12 12 13 14 13 13 13 11 11 9 8 8 7 6 5 5 3 3 3 4 4 4 3 4 3
7 8 8 8 8 9 9 7 7 7 8 9 10 10 10 11 11 12 12 12 13 13 13 14 13 13 12 9 9 8 7 6 5 5 4 2 2 3 3 2 2 2 2
8 7 8 8 8 9 8 7 7 7 7 9 9 9 9 10 10 11 12 12 11 12 12 13 13 14 13 12 10 10 8 7 6 5 4 3 3 3 4 3 2 1 1
8 8 8 8 7 7 7 7 6 6 6 8 8 8 9 9 9 10 11 11 11 11 10 11 11 13 15 13 10 10 10 8 7 6 5 3 4 4 4 3 3 2 1
8 8 8 7 7 7 6 6 6 6 6 6 8 8 9 8 9 10 11 10 10 11 11 10 10 12 14 15 14 14 13 11 10 7 5 6 6 5 4 4 4 3 2
8 8 8 6 6 6 5 5 6 6 6 6 7 8 9 9 11 12 13 11 10 10 11 10 8 9 12 11 11 12 11 11 12 10 9 8 7 7 8 6 4 3 2
8 8 7 7 6 6 5 6 6 6 5 5 6 8 7 8 11 11 12 10 9 10 11 11 11 10 11 12 10 8 6 6 8 7 7 7 7 8 8 7 6 5 3
8 8 8 7 7 6 6 6 6 5 6 5 5 5 6 8 10 11 10 8 8 9 9 10 11 11 14 16 12 10 8 5 7 11 10 10 12 13 11 8 6 4 2
9 9 8 7 6 7 7 6 6 5 6 4 4 4 6 7 9 10 8 7 8 7 7 8 12 13 16 17 13 12 11 8 9 9 9 10 9 10 11 7 7 5 3
9 8 8 7 6 7 7 6 6 5 4 3 3 3 5 6 8 10 9 7 8 8 7 7 8 14 17 17 14 11 13 12 10 10 9 7 7 6 5 4 4 5 4
8 8 8 7 6 6 6 6 5 4 3 3 2 2 2 4 6 9 10 8 8 8 8 7 8 14 16 16 12 14 17 14 9 9 8 7 6 5 5 5 6 6 5
8 8 8 7 6 5 5 5 4 2 2 2 2 2 2 2 4 7 8 8 9 7 6 10 12 14 14 12 15 17 14 10 10 9 8 6 5 6 6 5 6 7 7
9 8 8 7 6 5 4 4 3 2 2 2 2 2 2 2 2 4 5 6 8 7 7 10 13 13 11 12 12 11 8 9 9 9 8 7 6 6 5 4 4 4 4
8 8 7 6 5 5 4 4 4 4 4 3 3 3 3 3 3 4 4 5 7 7 8 7 7 8 8 7 7 7 7 8 9 8 9 8 8 6 5 4 4 3 3
7 7 6 5 4 4 4 5 5 5 6 6 5 5 4 4 4 4 5 7 9 12 9 8 9 8 9 9 8 8 7 8 8 9 9 9 8 7 6 5 4 4 4
7 7 6 5 5 4 4 3 4 5 4 4 4 4 4 4 4 5 6 9 10 11 8 8 9 9 9 8 8 8 7 7 8 9 9 9 8 8 7 6 5 4 4
7 8 7 5 5 4 4 4 3 3 3 1 0 2 3 4 4 6 8 8 6 7 7 9 9 8 9 9 8 8 8 8 8 8 9 9 8 8 7 6 6 5 4
7 6 6 5 5 4 4 4 3 3 3 1 0 1 2 3 4 6 6 5 6 6 7 7 8 8 8 8 8 8 9 9 9 9 9 9 8 8 7 7 6 7 5
6 10 8 6 4 4 4 3 3 2 2 1 2 2 2 2 2 3 2 3 5 6 7 7 7 7 8 9 9 9 9 9 9 8 8 8 8 8 8 8 7 6 4
5 7 9 7 5 5 4 3 3 2 2 2 2 2 3 2 3 3 2 3 4 6 7 7 8 8 8 9 9 9 9 9 8 9 8 8 8 8 7 7 7 6 5
5 5 5 5 5 4 3 3 3 3 2 2 2 1 2 2 2 3 2 3 3 5 6 7 7 7 8 9 10 10 10 9 9 9 9 8 8 8 8 7 7 6 6
5 6 6 5 5 5 5 3 3 3 3 3 2 2 2 2 3 3 3 3 4 5 6 7 8 7 7 7 7 9 10 10 9 10 11 10 9 8 8 8 8 8 6
6 6 6 5 4 4 3 3 3 3 3 3 2 2 2 3 3 3 3 3 4 5 6 6 7 10 11 9 8 8 9 10 11 11 12 12 10 9 8 8 8 8 7
6 6 5 5 5 4 3 3 3 3 3 2 2 2 2 3 3 3 3 4 6 6 7 7 8 9 12 12 10 10 15 17 15 13 12 10 11 10 9 9 8 8 7
5 5 5 4 4 4 3 3 3 3 3 2 2 3 3 3 4 4 4 5 6 7 7 7 9 11 12 12 13 17 19 19 18 17 13 10 10 9 10 8 10 8 8
Wind_Direction
282 284 282 278 275 274 261 247 242 237 226 217 217 211 208 207 201 200 203 201 198 195 193 194 196 186 185 185 178 175 179 174 193 196 150 147 161 168 161 162 173 180 196
280 283 283 282 278 276 271 257 247 245 231 219 213 210 209 207 202 200 203 200 197 194 194 194 195 188 186 184 182 183 185 181 180 187 170 165 168 170 156 160 165 170 175
289 288 288 287 282 277 275 266 253 246 231 217 209 211 211 208 204 202 201 200 198 195 193 195 193 185 188 186 183 183 184 177 174 172 172 158 151 149 145 147 139 133 142
290 288 285 281 279 276 273 272 256 246 234 216 207 210 212 210 207 205 200 199 198 196 193 194 193 190 188 185 185 183 176 170 163 160 160 153 147 140 148 158 158 133 102
293 286 281 281 281 276 272 274 265 252 244 225 209 210 211 207 206 200 197 196 194 193 193 194 193 190 185 184 184 180 175 175 168 167 167 159 164 162 178 164 164 137 110
297 289 287 287 286 277 272 274 269 261 249 231 209 207 211 215 207 201 194 192 192 191 190 190 189 185 183 180 179 177 176 177 179 178 180 181 186 177 158 151 143 139 195
301 297 295 291 286 277 276 278 272 265 251 237 218 209 211 209 199 195 189 189 191 192 188 187 187 186 177 176 174 170 173 176 178 179 181 186 179 176 162 156 158 153 169
304 305 307 301 293 289 277 273 274 273 259 239 226 209 205 203 194 190 183 185 189 192 189 186 182 179 177 168 163 161 164 174 177 174 174 173 166 161 162 157 145 119 93
308 308 307 303 300 300 284 277 276 275 267 239 209 204 203 203 192 184 178 180 185 190 189 183 179 179 170 159 158 158 156 150 132 135 134 134 136 138 136 125 128 124 129
307 305 303 300 299 296 286 279 278 273 265 238 221 203 202 202 192 183 176 180 182 184 182 180 178 175 168 162 165 164 166 163 146 133 123 117 118 125 130 140 150 144 137
305 303 302 301 298 291 295 287 281 276 269 235 216 207 202 199 191 185 184 185 182 181 180 178 176 169 168 168 168 171 168 156 148 141 132 122 113 111 107 102 117 141 145
307 306 302 300 299 298 293 292 283 267 258 220 187 202 202 194 190 187 188 190 178 178 180 175 169 165 166 166 165 157 150 143 142 139 137 137 134 130 120 105 95 88 94
309 307 304 298 292 290 291 295 290 267 251 224 187 205 226 212 184 178 179 177 171 172 170 163 159 160 157 159 153 149 147 147 146 144 147 147 141 138 128 114 94 86 76
306 303 302 300 300 303 298 289 279 258 251 227 201 205 219 221 182 168 171 165 157 150 146 143 142 143 143 142 145 145 148 152 151 149 145 138 131 131 132 131 124 113 90
302 301 304 301 296 299 296 289 283 274 255 244 218 202 206 219 216 209 186 176 169 158 144 140 141 142 145 145 144 144 144 144 142 140 139 140 140 139 137 131 123 114 110
305 305 301 300 297 300 305 311 298 283 282 265 247 228 231 221 213 202 185 169 160 153 146 154 155 156 157 156 155 152 150 150 148 144 144 145 148 147 139 129 121 125 126
296 299 298 295 293 296 297 299 310 320 304 261 244 233 217 198 192 175 162 157 158 155 152 160 162 162 160 157 158 157 155 152 148 146 148 149 147 144 140 138 136 130 128
291 293 291 287 283 283 282 278 278 285 297 292 203 190 186 179 166 157 149 143 157 160 159 162 163 161 159 158 158 154 149 146 146 147 148 148 147 145 142 143 145 143 141
288 289 288 282 276 275 275 274 269 269 269 262 160 140 143 137 140 150 150 155 166 166 161 156 155 157 156 155 153 151 151 149 149 150 150 148 148 146 145 145 145 142 135
287 288 290 284 275 271 269 270 266 261 254 236 217 187 146 127 137 146 150 159 163 161 157 152 151 152 153 151 149 149 147 146 148 148 149 148 148 146 147 147 146 145 145
285 288 289 287 275 265 259 255 254 248 242 236 236 216 208 183 173 169 174 166 162 159 155 151 150 150 149 148 148 148 147 149 151 149 148 148 146 144 143 142 141 138 136
276 278 278 277 274 265 259 248 242 242 236 230 237 229 213 191 176 170 164 156 148 151 152 151 150 152 154 155 153 152 152 151 152 149 146 145 143 141 140 138 136 135 135
268 269 272 272 270 263 262 244 230 230 229 225 222 219 196 174 168 159 152 146 144 145 145 146 146 146 143 143 150 155 156 157 156 153 148 145 143 143 142 140 140 139 139
265 263 263 262 263 256 245 234 226 226 226 220 215 213 191 166 154 148 143 141 141 140 140 141 144 145 142 141 142 141 140 141 142 146 143 143 142 141 139 138 139 140 139
262 259 257 251 251 249 237 225 218 216 223 222 209 193 169 155 146 143 138 135 133 133 134 135 136 139 141 140 141 140 139 138 138 138 135 135 137 137 138 138 137 135 133
258 252 249 246 242 240 230 220 217 213 212 210 194 177 162 151 144 135 131 133 132 131 130 131 134 136 136 134 135 137 138 138 137 136 135 133 135 137 136 135 133 132 131
Height
1375 1372 1370 1367 1365 1364 1362 1362 1362 1363 1365 1367 1369 1371 1374 1377 1380 1385 1389 1394 1398 1402 1408 1413 1419 1424 1429 1434 1438 1441 1445 1449 1451 1453 1456 1459 1462 1464 1466 1467 1468 1469 1469
1370 1368 1364 1362 1359 1358 1357 1356 1356 1357 1359 1361 1363 1365 1368 1371 1374 1378 1383 1387 1391 1396 1401 1407 1412 1418 1423 1428 1432 1436 1440 1444 1446 1448 1451 1454 1457 1459 1461 1463 1464 1464 1465
1365 1362 1359 1356 1354 1352 1350 1350 1350 1351 1353 1355 1357 1359 1362 1365 1368 1372 1377 1381 1385 1390 1395 1400 1406 1411 1417 1422 1427 1431 1434 1438 1442 1444 1446 1449 1452 1454 1456 1458 1459 1460 1460
1360 1357 1354 1351 1348 1347 1346 1346 1346 1346 1347 1349 1351 1354 1357 1359 1363 1367 1371 1375 1380 1384 1389 1395 1400 1405 1411 1416 1421 1425 1429 1433 1436 1439 1441 1444 1446 1449 1451 1453 1454 1455 1456
1355 1352 1349 1346 1344 1343 1341 1341 1341 1341 1342 1344 1346 1348 1351 1354 1357 1361 1366 1370 1374 1379 1384 1389 1395 1400 1406 1411 1415 1419 1424 1427 1430 1433 1436 1438 1441 1443 1446 1448 1449 1451 1452
1350 1347 1344 1342 1340 1338 1337 1336 1336 1336 1337 1338 1340 1343 1345 1349 1353 1357 1361 1365 1369 1374 1379 1384 1390 1395 1400 1406 1411 1415 1419 1422 1425 1428 1430 1433 1436 1439 1441 1443 1445 1446 1447
1346 1343 1340 1338 1335 1334 1333 1332 1332 1332 1332 1333 1335 1338 1340 1344 1348 1352 1357 1361 1365 1369 1374 1379 1385 1390 1395 1400 1405 1409 1413 1417 1420 1423 1425 1428 1431 1434 1437 1439 1441 1442 1443
1342 1339 1336 1334 1332 1330 1329 1328 1328 1328 1328 1329 1331 1334 1337 1340 1344 1348 1352 1357 1361 1365 1370 1374 1380 1384 1389 1395 1399 1403 1407 1411 1414 1418 1421 1424 1428 1431 1433 1435 1437 1439 1440
1338 1335 1333 1331 1328 1326 1326 1325 1325 1324 1324 1326 1328 1330 1333 1336 1340 1344 1348 1352 1356 1361 1365 1370 1375 1380 1385 1389 1394 1398 1402 1406 1410 1414 1417 1421 1424 1427 1429 1431 1433 1435 1436
1335 1332 1330 1328 1326 1324 1322 1322 1321 1321 1321 1323 1325 1327 1330 1332 1335 1339 1343 1348 1352 1356 1361 1365 1370 1375 1380 1384 1389 1393 1397 1401 1405 1409 1413 1417 1420 1423 1425 1428 1430 1431 1432
1332 1330 1327 1325 1323 1321 1319 1319 1318 1318 1318 1320 1321 1323 1326 1328 1332 1336 1340 1344 1347 1351 1355 1360 1365 1370 1375 1379 1384 1389 1393 1397 1401 1406 1409 1413 1416 1419 1422 1424 1427 1429 1430
1330 1326 1324 1322 1321 1319 1317 1316 1315 1315 1315 1316 1318 1320 1323 1326 1329 1333 1336 1340 1344 1348 1351 1356 1360 1365 1370 1375 1380 1384 1389 1394 1398 1402 1405 1409 1412 1415 1419 1421 1424 1426 1427
1326 1323 1320 1319 1317 1316 1314 1312 1312 1312 1312 1313 1315 1317 1319 1322 1326 1329 1333 1337 1341 1344 1348 1352 1357 1362 1366 1371 1376 1380 1385 1389 1394 1398 1401 1405 1409 1413 1416 1418 1421 1423 1425
1322 1319 1316 1314 1313 1312 1311 1310 1309 1309 1310 1311 1313 1314 1316 1319 1322 1326 1329 1333 1337 1341 1345 1349 1354 1358 1363 1368 1372 1377 1382 1386 1390 1394 1398 1402 1406 1410 1413 1416 1418 1420 1422
1317 1315 1312 1311 1309 1308 1308 1307 1306 1307 1308 1309 1311 1312 1314 1316 1319 1322 1325 1329 1332 1336 1340 1345 1350 1354 1359 1364 1369 1374 1378 1382 1386 1390 1395 1399 1403 1407 1410 1413 1416 1418 1419
1314 1311 1310 1308 1307 1306 1305 1305 1305 1306 1307 1308 1309 1310 1312 1314 1317 1319 1323 1326 1329 1334 1338 1341 1346 1351 1355 1360 1365 1370 1375 1379 1383 1387 1392 1396 1400 1403 1407 1410 1413 1416 1418
1310 1308 1306 1305 1304 1303 1303 1302 1302 1303 1304 1305 1306 1308 1310 1312 1314 1317 1320 1323 1327 1331 1334 1338 1343 1347 1352 1357 1362 1367 1371 1376 1380 1385 1389 1393 1397 1401 1404 1408 1411 1414 1416
1306 1304 1303 1302 1301 1301 1300 1300 1300 1300 1301 1302 1304 1306 1308 1310 1312 1314 1318 1321 1324 1328 1331 1335 1340 1345 1350 1354 1359 1364 1369 1374 1378 1383 1387 1391 1395 1398 1402 1405 1409 1412 1414
1301 1300 1299 1298 1298 1298 1297 1297 1298 1298 1299 1299 1302 1304 1307 1308 1310 1313 1316 1318 1320 1324 1329 1333 1338 1342 1347 1352 1357 1362 1367 1371 1376 1380 1385 1389 1393 1397 1400 1404 1407 1410 1412
1296 1295 1295 1294 1294 1294 1294 1294 1295 1295 1296 1298 1299 1302 1304 1306 1308 1311 1313 1316 1319 1323 1327 1331 1335 1340 1345 1350 1355 1360 1365 1369 1374 1378 1382 1387 1391 1395 1399 1402 1405 1408 1411
1291 1291 1290 1290 1290 1290 1291 1291 1292 1293 1294 1296 1297 1300 1302 1304 1306 1309 1312 1314 1318 1321 1325 1329 1334 1338 1343 1349 1353 1358 1363 1367 1372 1376 1381 1385 1389 1393 1397 1401 1404 1407 1409
1288 1287 1286 1286 1286 1287 1287 1288 1289 1290 1292 1293 1295 1298 1300 1303 1305 1307 1310 1313 1316 1320 1324 1328 1332 1337 1342 1347 1352 1356 1361 1366 1370 1375 1379 1383 1388 1392 1396 1399 1402 1405 1408
1283 1283 1282 1282 1283 1283 1285 1285 1287 1288 1290 1292 1293 1296 1298 1301 1303 1306 1308 1312 1315 1319 1323 1327 1331 1336 1341 1346 1351 1356 1360 1364 1369 1373 1378 1382 1386 1391 1394 1398 1401 1404 1407
1279 1278 1278 1279 1279 1280 1281 1282 1284 1286 1287 1290 1292 1294 1296 1299 1301 1304 1307 1311 1314 1318 1322 1327 1331 1335 1340 1345 1350 1355 1360 1365 1369 1373 1378 1381 1385 1390 1394 1397 1401 1404 1406
1274 1274 1274 1274 1275 1276 1277 1279 1281 1283 1285 1287 1289 1292 1294 1297 1300 1303 1306 1310 1313 1317 1321 1326 1331 1336 1341 1345 1350 1355 1360 1364 1368 1373 1377 1381 1385 1390 1393 1397 1400 1403 1406
1269 1269 1270 1270 1271 1272 1274 1276 1278 1280 1282 1285 1287 1290 1293 1296 1299 1302 1305 1309 1313 1317 1321 1326 1331 1336 1341 1345 1350 1355 1359 1364 1368 1373 1377 1382 1386 1389 1393 1397 1400 1403 1405